Location: Street
(51.1247°N, 2.7429°W)
Time: 06:21:42
(UTC+01:00)

CAS-6 - Pass Details

Date: 06 April 2023
Orbit: 610 x 632 km, 97.9° (Epoch: 29 May)

Event Time Altitude Azimuth Distance (km) Brightness Sun altitude
Exits shadow 22:29:46 33° 60° (ENE) 1,066 ? -22.4°
Drops below altitude 10° 22:33:32 10° 2° (N) 2,018 ? -22.8°
Sets 22:35:54 0° 353° (N) 2,934 ? -23.1°
